Regional Weather Roundup
Issued by NWS

Home | Current Version | Previous Version | Graphics & Text | Print | Product List | Glossary On
Versions: 1 2 3 4 5 6 7 8 9 10 11 12 13 14 15 16 17 18 19 20 21 22 23 24 25 26 27 28 29 30 31 32 33 34 35 36 37 38 39 40 41 42 43 44 45 46 47 48 49 50
000
ASUS45 KABQ 020210
RWRNM
WEATHER ROUNDUP FOR NEW MEXICO
NATIONAL WEATHER SERVICE ALBUQUERQUE NM
800 PM MDT FRI AUG 01 2014

NOTE: "FAIR" MEANS FEW OR NO CLOUDS BELOW 12,000 FEET AGL WITH NO
       SIGNIFICANT WEATHER OR OBSTRUCTIONS TO VISION.

      THIS PRODUCT IS RELEASED AS TWO VERSIONS.  ONE VERSION NEAR
      THE TOP OF THE HOUR CONTAINING PRELIMINARY DATA FROM ALBUQUERQUE
      AND OTHER STATIONS.  A FINAL VERSION WITH ADDITIONAL DATA IS
      ISSUED ABOUT 10 MINUTES AFTER THE HOUR.

NMZ501-503-504-510>518-020300-
NORTHWEST PLATEAU/NORTHCENTRAL MOUNTAINS

CITY           SKY/WX    TMP DP  RH WIND       PRES   REMARKS
FARMINGTON     MOCLDY    74  49  41 E9        30.15R
LOS ALAMOS     LGT RAIN  63  55  74 SW6       30.35R
SANTA FE       MOCLDY    67  57  70 S7        30.28R
TAOS           CLOUDY    61  54  77 CALM      30.35R
ANGEL FIRE     HVY RAIN  53  51  94 N7        30.47R

$$
NMZ402-403-502-505>509-020300-
WESTCENTRAL MOUNTAINS/SOUTHWEST MOUNTAINS

CITY           SKY/WX    TMP DP  RH WIND       PRES   REMARKS
GALLUP         LGT RAIN  75  54  47 SE9       30.22R
SILVER CITY    CLOUDY    66  57  72 SE8       30.22R

$$
NMZ407-409-411-412-020300-
SOUTHERN DESERTS

CITY           SKY/WX    TMP DP  RH WIND       PRES   REMARKS
LORDSBURG      MOCLDY    79  55  44 E8        30.10R
DEMING         PTCLDY    75  62  64 E7        30.13R
LAS CRUCES     PTCLDY    73  62  69 SE10      30.16R
HOLLOMAN AFB   CLOUDY    70  66  88 SE3       30.13R
ALAMOGORDO     MOCLDY    70  66  88 SW3       30.15R
T OR C         MOCLDY    74  61  63 S12       30.15R

$$
NMZ519>523-020300-
CENTRAL VALLEYS/CENTRAL HIGHLANDS

CITY           SKY/WX    TMP DP  RH WIND       PRES   REMARKS
ALBUQUERQUE    MOCLDY    77  55  46 E12       30.19R
DOUBLE EAGLE   MOCLDY    75  55  50 E9        30.23R
MORIARTY ARPT  MOCLDY    67  58  71 E9        30.28S
CLINES CORNERS CLOUDY    63  57  81 SE8       30.32R
BELEN          FAIR      75  57  53 SE15      30.18R
SOCORRO        FAIR      77  57  49 SE8       30.16R

$$
NMZ524>526-539-540-020300-
SOUTHCENTRAL MOUNTAINS

CITY           SKY/WX    TMP DP  RH WIND       PRES   REMARKS
RUIDOSO        CLOUDY    59  55  88 SE3       30.36R

$$
NMZ527>531-020300-
NORTHEAST HIGHLANDS/NORTHEAST PLAINS

CITY           SKY/WX    TMP DP  RH WIND       PRES   REMARKS
LAS VEGAS      TSTM      59  57  93 SE10      30.34R FOG
RATON          CLOUDY    60  54  80 CALM      30.35R
CLAYTON        CLOUDY    68  52  56 NW5       30.26S

$$
NMZ532>537-020300-
EASTCENTRAL PLAINS

CITY           SKY/WX    TMP DP  RH WIND       PRES   REMARKS
TUCUMCARI      CLOUDY    78  46  32 SE7       30.17S
CANNON AFB     CLOUDY    73  50  44 E9        30.21R
CLOVIS AIRPORT NOT AVBL

$$
NMZ028-029-538-020300-
SOUTHEAST PLAINS

CITY           SKY/WX    TMP DP  RH WIND       PRES   REMARKS
ROSWELL        PTCLDY    73  63  70 W5        30.15R
ARTESIA        CLOUDY    72  64  78 W3        30.14S
CARLSBAD       CLOUDY    75  62  64 CALM      30.11S
HOBBS          CLOUDY    79  52  38 NE7       30.14S


$$



USA.gov is the U.S. government's official web portal to all federal, state and local government web resources and services.